timestamp,wind_dir_avg,wind_spd_max_dir,wind_spd_avg,wind_spd_gust,battery_voltage,lat,long
2018-05-26 00:00:00+00:00,178.0,180.0,8.54,9.94,,47.59359,-54.27349
2018-05-26 00:10:00+00:00,176.0,177.0,9.2,11.14,,47.59359,-54.27349
2018-05-26 00:20:00+00:00,174.0,179.0,8.98,9.88,,47.59359,-54.27349
2018-05-26 00:30:00+00:00,181.0,189.0,7.28,8.83,,47.59359,-54.27349
2018-05-26 00:40:00+00:00,182.0,177.0,6.77,8.27,,47.59359,-54.27349
2018-05-26 00:50:00+00:00,185.0,182.0,6.59,7.98,,47.59359,-54.27349
2018-05-26 01:00:00+00:00,182.0,181.0,4.14,4.84,,47.59359,-54.27349
2018-05-26 01:10:00+00:00,167.0,162.0,3.47,4.52,,47.59359,-54.27349
2018-05-26 01:20:00+00:00,142.0,147.0,2.37,2.87,,47.59359,-54.27349
2018-05-26 01:30:00+00:00,162.0,168.0,2.93,3.74,,47.59359,-54.27349
2018-05-26 01:40:00+00:00,148.0,145.0,3.55,4.19,,47.59359,-54.27349
2018-05-26 01:50:00+00:00,158.0,147.0,5.2,5.98,,47.59359,-54.27349
2018-05-26 02:00:00+00:00,168.0,154.0,6.47,8.27,,47.59359,-54.27349
2018-05-26 02:10:00+00:00,162.0,164.0,3.22,3.87,,47.59359,-54.27349
2018-05-26 02:20:00+00:00,137.0,125.0,2.77,3.67,,47.59359,-54.27349
2018-05-26 02:30:00+00:00,144.0,127.0,3.17,4.91,,47.59359,-54.27349
2018-05-26 02:40:00+00:00,194.0,190.0,3.88,5.44,,47.59359,-54.27349
2018-05-26 03:20:00+00:00,171.0,168.0,5.49,7.08,,47.59359,-54.27349
2018-05-26 03:30:00+00:00,167.0,170.0,6.03,6.9,,47.59359,-54.27349
2018-05-26 03:40:00+00:00,166.0,165.0,6.61,7.76,,47.59359,-54.27349
2018-05-26 03:50:00+00:00,167.0,155.0,7.33,8.78,,47.59359,-54.27349
2018-05-26 04:00:00+00:00,177.0,173.0,8.17,9.0,,47.59359,-54.27349
2018-05-26 04:10:00+00:00,168.0,169.0,9.17,11.2,,47.59359,-54.27349
2018-05-26 04:20:00+00:00,179.0,179.0,8.87,10.08,,47.59359,-54.27349
2018-05-26 04:30:00+00:00,177.0,178.0,7.45,8.19,,47.59359,-54.27349
2018-05-26 04:40:00+00:00,175.0,170.0,7.11,9.15,,47.59359,-54.27349
2018-05-26 04:50:00+00:00,178.0,179.0,7.53,8.67,,47.59359,-54.27349
2018-05-26 05:00:00+00:00,188.0,186.0,6.89,7.95,,47.59359,-54.27349
2018-05-26 05:10:00+00:00,197.0,193.0,6.28,7.04,,47.59359,-54.27349
2018-05-26 05:20:00+00:00,206.0,204.0,5.86,6.44,,47.59359,-54.27349
2018-05-26 05:40:00+00:00,191.0,186.0,4.08,4.55,,47.59359,-54.27349
2018-05-26 09:10:00+00:00,248.0,250.0,2.1,2.29,,47.59359,-54.27349
2018-05-26 09:40:00+00:00,241.0,242.0,3.03,3.05,,47.59359,-54.27349
2018-05-26 10:40:00+00:00,234.0,235.0,2.36,2.37,,47.59359,-54.27349
2018-05-26 11:00:00+00:00,295.0,296.0,1.15,1.17,,47.59359,-54.27349
2018-05-26 11:10:00+00:00,300.0,300.0,0.71,0.94,,47.59359,-54.27349
2018-05-26 11:20:00+00:00,277.0,281.0,0.68,0.92,,47.59359,-54.27349
2018-05-26 11:30:00+00:00,249.0,252.0,0.8,1.02,,47.59359,-54.27349
2018-05-26 11:40:00+00:00,210.0,212.0,2.52,2.82,,47.59359,-54.27349
2018-05-26 11:50:00+00:00,210.0,213.0,2.11,2.35,,47.59359,-54.27349
2018-05-26 12:00:00+00:00,213.0,216.0,3.26,3.73,,47.59359,-54.27349
2018-05-26 12:10:00+00:00,240.0,239.0,2.34,2.67,,47.59359,-54.27349
2018-05-26 12:20:00+00:00,226.0,227.0,2.97,3.17,,47.59359,-54.27349
2018-05-26 12:30:00+00:00,215.0,217.0,5.2,6.03,,47.59359,-54.27349
2018-05-26 12:40:00+00:00,228.0,227.0,3.3,3.63,,47.59359,-54.27349
2018-05-26 12:50:00+00:00,219.0,220.0,2.35,2.47,,47.59359,-54.27349
2018-05-26 13:00:00+00:00,205.0,210.0,2.12,2.42,,47.59359,-54.27349
2018-05-26 13:10:00+00:00,196.0,201.0,1.06,1.32,,47.59359,-54.27349
2018-05-26 13:20:00+00:00,222.0,223.0,1.08,1.32,,47.59359,-54.27349
2018-05-26 13:30:00+00:00,216.0,217.0,2.47,2.81,,47.59359,-54.27349
2018-05-26 13:40:00+00:00,219.0,218.0,2.49,2.89,,47.59359,-54.27349
2018-05-26 13:50:00+00:00,220.0,219.0,3.18,5.12,,47.59359,-54.27349
2018-05-26 14:00:00+00:00,224.0,220.0,4.02,4.41,,47.59359,-54.27349
2018-05-26 14:10:00+00:00,224.0,227.0,3.27,3.38,,47.59359,-54.27349
2018-05-26 14:20:00+00:00,218.0,219.0,4.97,5.23,,47.59359,-54.27349
2018-05-26 14:30:00+00:00,222.0,223.0,5.5,6.04,,47.59359,-54.27349
2018-05-26 14:40:00+00:00,222.0,224.0,5.68,6.05,,47.59359,-54.27349
2018-05-26 14:50:00+00:00,220.0,222.0,5.23,5.9,,47.59359,-54.27349
2018-05-26 15:00:00+00:00,213.0,213.0,5.62,6.26,,47.59359,-54.27349
2018-05-26 15:10:00+00:00,214.0,216.0,5.5,6.17,,47.59359,-54.27349
2018-05-26 15:20:00+00:00,210.0,212.0,4.22,4.72,,47.59359,-54.27349
2018-05-26 15:30:00+00:00,218.0,216.0,3.37,3.6,,47.59359,-54.27349
2018-05-26 15:40:00+00:00,223.0,223.0,2.97,3.22,,47.59359,-54.27349
2018-05-26 15:50:00+00:00,203.0,205.0,3.69,4.1,,47.59359,-54.27349
2018-05-26 16:00:00+00:00,215.0,215.0,3.25,3.38,,47.59359,-54.27349
2018-05-26 16:10:00+00:00,212.0,213.0,3.95,4.11,,47.59359,-54.27349
2018-05-26 16:20:00+00:00,209.0,212.0,4.56,5.03,,47.59359,-54.27349
2018-05-26 16:30:00+00:00,214.0,213.0,5.02,5.45,,47.59359,-54.27349
2018-05-26 16:40:00+00:00,218.0,220.0,4.87,5.26,,47.59359,-54.27349
2018-05-26 16:50:00+00:00,215.0,219.0,4.58,5.12,,47.59359,-54.27349
2018-05-26 17:00:00+00:00,219.0,218.0,5.61,6.16,,47.59359,-54.27349
2018-05-26 17:10:00+00:00,220.0,222.0,6.2,6.72,,47.59359,-54.27349
2018-05-26 17:20:00+00:00,220.0,220.0,6.06,6.69,,47.59359,-54.27349
2018-05-26 17:30:00+00:00,222.0,224.0,6.74,7.46,,47.59359,-54.27349
2018-05-26 17:40:00+00:00,222.0,219.0,7.32,8.39,,47.59359,-54.27349
2018-05-26 17:50:00+00:00,225.0,222.0,7.54,8.45,,47.59359,-54.27349
2018-05-26 18:00:00+00:00,227.0,221.0,7.25,8.32,,47.59359,-54.27349
2018-05-26 18:10:00+00:00,231.0,234.0,7.05,7.68,,47.59359,-54.27349
2018-05-26 18:20:00+00:00,225.0,222.0,6.15,6.84,,47.59359,-54.27349
2018-05-26 18:30:00+00:00,232.0,238.0,7.58,8.63,,47.59359,-54.27349
2018-05-26 18:40:00+00:00,221.0,222.0,6.76,7.62,,47.59359,-54.27349
2018-05-26 18:50:00+00:00,223.0,223.0,7.23,7.94,,47.59359,-54.27349
2018-05-26 19:00:00+00:00,226.0,226.0,5.47,6.15,,47.59359,-54.27349
2018-05-26 19:10:00+00:00,229.0,232.0,5.38,6.18,,47.59359,-54.27349
2018-05-26 19:20:00+00:00,224.0,226.0,7.69,9.18,,47.59359,-54.27349
2018-05-26 19:30:00+00:00,227.0,224.0,7.95,9.47,,47.59359,-54.27349
2018-05-26 19:40:00+00:00,224.0,225.0,8.73,9.82,,47.59359,-54.27349
2018-05-26 19:50:00+00:00,220.0,227.0,7.12,8.1,,47.59359,-54.27349
2018-05-26 20:00:00+00:00,221.0,220.0,5.39,5.91,,47.59359,-54.27349
2018-05-26 20:10:00+00:00,230.0,225.0,6.07,6.92,,47.59359,-54.27349
2018-05-26 20:20:00+00:00,228.0,227.0,6.99,7.78,,47.59359,-54.27349
2018-05-26 20:30:00+00:00,231.0,230.0,7.16,8.32,,47.59359,-54.27349
2018-05-26 20:40:00+00:00,230.0,230.0,6.02,6.9,,47.59359,-54.27349
2018-05-26 20:50:00+00:00,231.0,230.0,5.29,5.89,,47.59359,-54.27349
2018-05-26 21:00:00+00:00,229.0,230.0,5.47,5.97,,47.59359,-54.27349
2018-05-26 21:10:00+00:00,234.0,238.0,5.77,6.18,,47.59359,-54.27349
2018-05-26 21:20:00+00:00,234.0,234.0,5.45,5.9,,47.59359,-54.27349
2018-05-26 21:30:00+00:00,241.0,238.0,5.07,5.71,,47.59359,-54.27349
2018-05-26 21:40:00+00:00,234.0,237.0,4.3,5.03,,47.59359,-54.27349
2018-05-26 21:50:00+00:00,235.0,234.0,5.09,5.41,,47.59359,-54.27349
2018-05-26 22:00:00+00:00,241.0,243.0,4.42,4.84,,47.59359,-54.27349
2018-05-26 22:10:00+00:00,238.0,246.0,2.42,2.94,,47.59359,-54.27349
2018-05-26 22:20:00+00:00,220.0,226.0,0.75,0.96,,47.59359,-54.27349
2018-05-26 22:30:00+00:00,154.0,153.0,1.14,1.46,,47.59359,-54.27349
2018-05-26 22:40:00+00:00,141.0,140.0,1.52,1.68,,47.59359,-54.27349
2018-05-26 22:50:00+00:00,131.0,133.0,2.12,2.5,,47.59359,-54.27349
2018-05-26 23:00:00+00:00,95.0,94.0,2.71,3.41,,47.59359,-54.27349
2018-05-26 23:10:00+00:00,61.0,64.0,5.53,5.82,,47.59359,-54.27349
2018-05-26 23:20:00+00:00,69.0,71.0,6.78,7.31,,47.59359,-54.27349
2018-05-26 23:30:00+00:00,80.0,83.0,5.96,6.67,,47.59359,-54.27349
2018-05-26 23:40:00+00:00,79.0,77.0,3.9,4.39,,47.59359,-54.27349
2018-05-26 23:50:00+00:00,94.0,111.0,2.88,4.3,,47.59359,-54.27349
